DAL120 PANC-KMSP

Flight info

Callsign DAL120
Flight time 4h 34m
Altitude 39000
Route NOEND JOH YAK YYE/N0481F410 57N120W ELTIP 53N110W 50N100W GGULL BAINY4
Aircraft A359/H-SDE2E3GHIJ1J3J4J5LM1ORWXY/LB1D1

Departure

Time 2026-05-06 15:38
Airport Ted Stevens Anchorage International Airport (PANC)

Arrival

Time 2026-05-06 20:13
Airport Minneapolis–Saint Paul International Airport / Wold–Chamberlain Field (KMSP)
Time Latitude Longitude Altitude Speed Heading
2026-05-06 15:10 61.17238 -149.98314 118 ft 0 kts 340°
2026-05-06 15:25 61.17235 -149.98312 114 ft 3 kts 340°
2026-05-06 15:26 61.17210 -149.98294 114 ft 4 kts 340°
2026-05-06 15:26 61.17193 -149.98281 114 ft 4 kts 343°
2026-05-06 15:26 61.17167 -149.98265 115 ft 4 kts 339°
2026-05-06 15:26 61.17143 -149.98242 107 ft 4 kts 326°
2026-05-06 15:27 61.17124 -149.98206 114 ft 4 kts 300°
2026-05-06 15:27 61.17117 -149.98167 115 ft 1 kts 269°
2026-05-06 15:27 61.17117 -149.98160 115 ft 0 kts 269°
2026-05-06 15:32 61.17118 -149.98169 115 ft 0 kts 277°
2026-05-06 15:34 61.17121 -149.98175 115 ft 2 kts 293°
2026-05-06 15:34 61.17143 -149.98152 125 ft 6 kts 59°
2026-05-06 15:34 61.17132 -149.97997 112 ft 14 kts 101°
2026-05-06 15:34 61.17120 -149.97763 114 ft 19 kts 92°
2026-05-06 15:35 61.17114 -149.97461 111 ft 23 kts 93°
2026-05-06 15:35 61.17128 -149.97109 106 ft 26 kts 85°
2026-05-06 15:35 61.17128 -149.96714 103 ft 28 kts 90°
2026-05-06 15:35 61.17129 -149.96305 103 ft 29 kts 89°
2026-05-06 15:36 61.17129 -149.95889 103 ft 29 kts 90°
2026-05-06 15:36 61.17130 -149.95465 103 ft 30 kts 89°
2026-05-06 15:36 61.17128 -149.95042 103 ft 28 kts 90°
2026-05-06 15:36 61.17085 -149.94837 105 ft 12 kts 145°
2026-05-06 15:37 61.17045 -149.94825 105 ft 5 kts 198°
2026-05-06 15:37 61.17002 -149.94887 104 ft 8 kts 222°
2026-05-06 15:37 61.16987 -149.94960 107 ft 0 kts 262°
2026-05-06 15:37 61.16987 -149.94962 107 ft 3 kts 264°
2026-05-06 15:38 61.16972 -149.95365 107 ft 61 kts 268°
2026-05-06 15:38 61.16980 -149.96685 107 ft 122 kts 270°
2026-05-06 15:38 61.16981 -149.98788 177 ft 168 kts 270°
2026-05-06 15:38 61.17015 -150.01234 810 ft 171 kts 271°
2026-05-06 15:39 61.17093 -150.03710 1583 ft 173 kts 273°
2026-05-06 15:39 61.17225 -150.06232 2245 ft 183 kts 276°
2026-05-06 15:39 61.17422 -150.08907 2815 ft 191 kts 278°
2026-05-06 15:39 61.17993 -150.11519 3056 ft 213 kts 310°
2026-05-06 15:40 61.19277 -150.13301 3272 ft 237 kts 343°
2026-05-06 15:40 61.20958 -150.13178 3586 ft 253 kts 22°
2026-05-06 15:40 61.22318 -150.10898 4134 ft 258 kts 59°
2026-05-06 15:40 61.22786 -150.07372 4780 ft 257 kts 95°
2026-05-06 15:41 61.22229 -150.03878 5451 ft 257 kts 121°
2026-05-06 15:41 61.21409 -150.00540 6084 ft 262 kts 117°
2026-05-06 15:41 61.20706 -149.97015 6752 ft 266 kts 110°
2026-05-06 15:41 61.20195 -149.93296 7429 ft 270 kts 104°
2026-05-06 15:42 61.19857 -149.89434 8099 ft 274 kts 99°
2026-05-06 15:42 61.19645 -149.85489 8797 ft 277 kts 95°
2026-05-06 15:42 61.19503 -149.81476 9472 ft 281 kts 95°
2026-05-06 15:42 61.19365 -149.77412 10121 ft 284 kts 94°
2026-05-06 15:43 61.19220 -149.73231 10470 ft 299 kts 95°
2026-05-06 15:43 61.19049 -149.68829 10739 ft 315 kts 95°
2026-05-06 15:43 61.18859 -149.64200 11015 ft 329 kts 95°
2026-05-06 15:43 61.18656 -149.59400 11451 ft 337 kts 95°
2026-05-06 15:44 61.18446 -149.54531 12048 ft 341 kts 95°
2026-05-06 15:44 61.18230 -149.49608 12626 ft 344 kts 96°
2026-05-06 15:44 61.18011 -149.44642 13231 ft 347 kts 96°
2026-05-06 15:44 61.17789 -149.39640 13818 ft 350 kts 96°
2026-05-06 15:45 61.17564 -149.34602 14369 ft 352 kts 96°
2026-05-06 15:45 61.17334 -149.29518 14876 ft 356 kts 97°
2026-05-06 15:45 61.17101 -149.24385 15389 ft 360 kts 96°
2026-05-06 15:45 61.16867 -149.19211 15927 ft 362 kts 97°
2026-05-06 15:46 61.16627 -149.13998 16468 ft 365 kts 97°
2026-05-06 15:46 61.16379 -149.08753 16990 ft 367 kts 96°
2026-05-06 15:46 61.16128 -149.03461 17510 ft 371 kts 96°
2026-05-06 15:46 61.15875 -148.98135 18021 ft 374 kts 97°
2026-05-06 15:47 61.15617 -148.92759 18484 ft 376 kts 97°
2026-05-06 15:47 61.15356 -148.87351 18924 ft 379 kts 97°
2026-05-06 15:47 61.15091 -148.81904 19364 ft 381 kts 97°
2026-05-06 15:47 61.14822 -148.76425 19803 ft 384 kts 97°
2026-05-06 15:48 61.14549 -148.70911 20242 ft 386 kts 97°
2026-05-06 15:48 61.14272 -148.65370 20677 ft 388 kts 97°
2026-05-06 15:48 61.13989 -148.59801 21100 ft 390 kts 97°
2026-05-06 15:48 61.13675 -148.54203 21539 ft 392 kts 101°
2026-05-06 15:49 61.13068 -148.48701 21955 ft 393 kts 109°
2026-05-06 15:49 61.12037 -148.43470 22379 ft 393 kts 118°
2026-05-06 15:49 61.10699 -148.38529 22795 ft 395 kts 123°
2026-05-06 15:49 61.09193 -148.33772 23207 ft 396 kts 126°
2026-05-06 15:50 61.07600 -148.29109 23610 ft 399 kts 127°
2026-05-06 15:50 61.05964 -148.24454 23946 ft 402 kts 128°
2026-05-06 15:50 61.04315 -148.19772 24279 ft 404 kts 128°
2026-05-06 15:50 61.02668 -148.15050 24632 ft 407 kts 127°
2026-05-06 15:51 61.01024 -148.10290 24961 ft 409 kts 127°
2026-05-06 15:51 60.99375 -148.05485 25262 ft 412 kts 127°
2026-05-06 15:51 60.97719 -148.00647 25593 ft 414 kts 127°
2026-05-06 15:51 60.96057 -147.95791 25919 ft 416 kts 127°
2026-05-06 15:52 60.94382 -147.90910 26246 ft 419 kts 128°
2026-05-06 15:52 60.92697 -147.86008 26586 ft 421 kts 128°
2026-05-06 15:52 60.91022 -147.81146 26907 ft 424 kts 128°
2026-05-06 15:52 60.89312 -147.76193 27251 ft 426 kts 128°
2026-05-06 15:53 60.87590 -147.71217 27602 ft 429 kts 128°
2026-05-06 15:53 60.85855 -147.66214 27955 ft 432 kts 128°
2026-05-06 15:53 60.84107 -147.61186 28308 ft 434 kts 128°
2026-05-06 15:53 60.82347 -147.56133 28671 ft 437 kts 128°
2026-05-06 15:54 60.80573 -147.51049 28982 ft 440 kts 129°
2026-05-06 15:54 60.78787 -147.45940 29323 ft 443 kts 129°
2026-05-06 15:54 60.76988 -147.40809 29661 ft 446 kts 129°
2026-05-06 15:54 60.75171 -147.35644 30002 ft 448 kts 129°
2026-05-06 15:55 60.73342 -147.30454 30286 ft 451 kts 129°
2026-05-06 15:55 60.71501 -147.25241 30549 ft 454 kts 129°
2026-05-06 15:55 60.69643 -147.19989 30796 ft 457 kts 129°
2026-05-06 15:55 60.67771 -147.14712 31057 ft 460 kts 129°
2026-05-06 15:56 60.65887 -147.09410 31315 ft 463 kts 129°
2026-05-06 15:56 60.63988 -147.04080 31540 ft 466 kts 129°
2026-05-06 15:56 60.62075 -146.98723 31761 ft 469 kts 129°
2026-05-06 15:56 60.60148 -146.93332 32009 ft 472 kts 129°
2026-05-06 15:57 60.58211 -146.87933 32241 ft 474 kts 129°
2026-05-06 15:57 60.56258 -146.82502 32463 ft 477 kts 129°
2026-05-06 15:57 60.54293 -146.77053 32680 ft 479 kts 129°
2026-05-06 15:57 60.52316 -146.71580 32889 ft 482 kts 129°
2026-05-06 15:58 60.50351 -146.66048 33086 ft 485 kts 126°
2026-05-06 15:58 60.48674 -146.60070 33267 ft 491 kts 118°
2026-05-06 15:58 60.47467 -146.53556 33466 ft 497 kts 108°
2026-05-06 15:58 60.46568 -146.46777 33651 ft 500 kts 106°
2026-05-06 15:59 60.45767 -146.39899 33794 ft 503 kts 105°
2026-05-06 15:59 60.45008 -146.32957 33961 ft 505 kts 105°
2026-05-06 15:59 60.44259 -146.25993 34136 ft 507 kts 105°
2026-05-06 15:59 60.43502 -146.19010 34290 ft 509 kts 105°
2026-05-06 16:00 60.42730 -146.12017 34448 ft 510 kts 105°
2026-05-06 16:00 60.41942 -146.05000 34593 ft 512 kts 105°
2026-05-06 16:00 60.41143 -145.97984 34791 ft 512 kts 105°
2026-05-06 16:00 60.40337 -145.90978 35020 ft 511 kts 105°
2026-05-06 16:01 60.39525 -145.83970 35234 ft 511 kts 105°
2026-05-06 16:01 60.38710 -145.76977 35442 ft 511 kts 106°
2026-05-06 16:01 60.37891 -145.69986 35611 ft 512 kts 106°
2026-05-06 16:01 60.37068 -145.62985 35798 ft 512 kts 106°
2026-05-06 16:02 60.36240 -145.55986 36014 ft 512 kts 106°
2026-05-06 16:02 60.35410 -145.48996 36225 ft 512 kts 106°
2026-05-06 16:02 60.34576 -145.42011 36425 ft 512 kts 106°
2026-05-06 16:02 60.33739 -145.35024 36620 ft 512 kts 106°
2026-05-06 16:03 60.32898 -145.28046 36826 ft 512 kts 106°
2026-05-06 16:03 60.32053 -145.21069 37014 ft 512 kts 106°
2026-05-06 16:03 60.31205 -145.14094 37211 ft 512 kts 106°
2026-05-06 16:03 60.30353 -145.07128 37404 ft 512 kts 107°
2026-05-06 16:04 60.29496 -145.00148 37541 ft 513 kts 107°
2026-05-06 16:04 60.28636 -144.93179 37707 ft 513 kts 107°
2026-05-06 16:04 60.27772 -144.86209 37908 ft 513 kts 107°
2026-05-06 16:04 60.26904 -144.79244 38108 ft 512 kts 107°
2026-05-06 16:05 60.26034 -144.72293 38309 ft 512 kts 107°
2026-05-06 16:05 60.25160 -144.65347 38485 ft 512 kts 107°
2026-05-06 16:05 60.24294 -144.58490 38655 ft 512 kts 107°
2026-05-06 16:05 60.23413 -144.51553 38790 ft 512 kts 107°
2026-05-06 16:06 60.22527 -144.44612 38917 ft 512 kts 107°
2026-05-06 16:06 60.21639 -144.37680 38999 ft 512 kts 107°
2026-05-06 16:06 60.19852 -144.23828 39016 ft 512 kts 107°
2026-05-06 16:07 60.18053 -144.10000 39016 ft 512 kts 107°
2026-05-06 16:07 60.16238 -143.96189 39016 ft 512 kts 108°
2026-05-06 16:08 60.14407 -143.82378 39021 ft 511 kts 108°
2026-05-06 16:08 60.12564 -143.68599 39021 ft 511 kts 108°
2026-05-06 16:09 60.10707 -143.54841 39020 ft 511 kts 108°
2026-05-06 16:09 60.08836 -143.41097 39021 ft 511 kts 108°
2026-05-06 16:10 60.07257 -143.29596 39023 ft 511 kts 108°
2026-05-06 16:10 60.05361 -143.15887 39034 ft 511 kts 108°
2026-05-06 16:11 60.03449 -143.02187 39017 ft 511 kts 108°
2026-05-06 16:11 60.01524 -142.88506 39032 ft 511 kts 109°
2026-05-06 16:12 59.99598 -142.74934 39043 ft 511 kts 109°
2026-05-06 16:12 59.97645 -142.61285 39042 ft 511 kts 109°
2026-05-06 16:13 59.95677 -142.47652 39046 ft 511 kts 109°
2026-05-06 16:13 59.93697 -142.34042 39039 ft 511 kts 109°
2026-05-06 16:14 59.91700 -142.20437 39060 ft 511 kts 109°
2026-05-06 16:14 59.89691 -142.06853 39069 ft 511 kts 109°
2026-05-06 16:15 59.87668 -141.93287 39075 ft 511 kts 109°
2026-05-06 16:15 59.85629 -141.79725 39066 ft 511 kts 110°
2026-05-06 16:16 59.83578 -141.66198 39077 ft 511 kts 110°
2026-05-06 16:16 59.81510 -141.52665 39083 ft 512 kts 110°
2026-05-06 16:17 59.79430 -141.39153 39083 ft 512 kts 110°
2026-05-06 16:17 59.77335 -141.25654 39083 ft 512 kts 110°
2026-05-06 16:18 59.75226 -141.12176 39086 ft 511 kts 110°
2026-05-06 16:18 59.73104 -140.98716 39081 ft 512 kts 110°
2026-05-06 16:19 59.70966 -140.85257 39095 ft 512 kts 110°
2026-05-06 16:19 59.68815 -140.71820 39094 ft 511 kts 111°
2026-05-06 16:20 59.66652 -140.58415 39097 ft 511 kts 111°
2026-05-06 16:20 59.64476 -140.45031 39097 ft 511 kts 111°
2026-05-06 16:21 59.62285 -140.31655 39095 ft 512 kts 111°
2026-05-06 16:21 59.60078 -140.18283 39102 ft 512 kts 111°
2026-05-06 16:22 59.57859 -140.04934 39103 ft 512 kts 111°
2026-05-06 16:22 59.55627 -139.91604 39102 ft 512 kts 111°
2026-05-06 16:23 59.53395 -139.78377 39105 ft 512 kts 111°
2026-05-06 16:23 59.51555 -139.64817 39119 ft 517 kts 100°
2026-05-06 16:24 59.51399 -139.50618 39118 ft 521 kts 90°
2026-05-06 16:24 59.51742 -139.36361 39118 ft 521 kts 89°
2026-05-06 16:25 59.52142 -139.22086 39121 ft 522 kts 89°
2026-05-06 16:25 59.52499 -139.07796 39132 ft 522 kts 90°
2026-05-06 16:26 59.52818 -138.93503 39133 ft 522 kts 90°
2026-05-06 16:26 59.53114 -138.79190 39157 ft 523 kts 90°
2026-05-06 16:27 59.53395 -138.64878 39154 ft 523 kts 90°
2026-05-06 16:27 59.53662 -138.50560 39155 ft 523 kts 90°
2026-05-06 16:28 59.53914 -138.36236 39166 ft 523 kts 90°
2026-05-06 16:28 59.54150 -138.21886 39155 ft 525 kts 91°
2026-05-06 16:29 59.54370 -138.07520 39151 ft 524 kts 91°
2026-05-06 16:29 59.54575 -137.93149 39149 ft 525 kts 91°
2026-05-06 16:30 59.54734 -137.81195 39156 ft 524 kts 91°
2026-05-06 16:30 59.54938 -137.64401 39141 ft 524 kts 91°
2026-05-06 16:31 59.55096 -137.50028 39146 ft 524 kts 91°
2026-05-06 16:31 59.55238 -137.35738 39153 ft 526 kts 91°
2026-05-06 16:32 59.55363 -137.21310 39136 ft 527 kts 91°
2026-05-06 16:32 59.55473 -137.06868 39114 ft 527 kts 91°
2026-05-06 16:33 59.55568 -136.92428 39121 ft 526 kts 91°
2026-05-06 16:34 59.55682 -136.70788 39120 ft 526 kts 92°
2026-05-06 16:34 59.55738 -136.56355 39125 ft 527 kts 92°
2026-05-06 16:35 59.55776 -136.41952 39113 ft 523 kts 91°
2026-05-06 16:35 59.55799 -136.27642 39118 ft 521 kts 92°
2026-05-06 16:36 59.55806 -136.13334 39111 ft 524 kts 92°
2026-05-06 16:36 59.55796 -135.98870 39113 ft 531 kts 92°
2026-05-06 16:37 59.55771 -135.84233 39111 ft 536 kts 92°
2026-05-06 16:37 59.55731 -135.69504 39108 ft 539 kts 92°
2026-05-06 16:38 59.55674 -135.54740 39107 ft 538 kts 92°
2026-05-06 16:38 59.55600 -135.40005 39110 ft 537 kts 92°
2026-05-06 16:39 59.55510 -135.25298 39101 ft 536 kts 92°
2026-05-06 16:39 59.55403 -135.10582 39108 ft 537 kts 92°
2026-05-06 16:40 59.55279 -134.95864 39093 ft 537 kts 92°
2026-05-06 16:40 59.55139 -134.81153 39096 ft 537 kts 92°
2026-05-06 16:41 59.54982 -134.66441 39081 ft 537 kts 93°
2026-05-06 16:41 59.54810 -134.51792 39076 ft 533 kts 93°
2026-05-06 16:42 59.54621 -134.37207 39071 ft 532 kts 93°
2026-05-06 16:42 59.54417 -134.22621 39074 ft 533 kts 93°
2026-05-06 16:43 59.54196 -134.08003 39073 ft 533 kts 93°
2026-05-06 16:43 59.53959 -133.93402 39073 ft 533 kts 93°
2026-05-06 16:44 59.53706 -133.78803 39089 ft 533 kts 93°
2026-05-06 16:44 59.53436 -133.64197 39093 ft 534 kts 94°
2026-05-06 16:45 59.53149 -133.49551 39091 ft 535 kts 94°
2026-05-06 16:45 59.52852 -133.35212 39117 ft 536 kts 94°
2026-05-06 16:46 59.52535 -133.20642 39119 ft 536 kts 94°
2026-05-06 16:46 59.52197 -133.05879 39126 ft 536 kts 94°
2026-05-06 16:47 59.51846 -132.91322 39129 ft 536 kts 94°
2026-05-06 16:47 59.51478 -132.76669 39115 ft 536 kts 95°
2026-05-06 16:48 59.51090 -132.61917 39112 ft 536 kts 95°
2026-05-06 16:48 59.50688 -132.47251 39111 ft 537 kts 95°
2026-05-06 16:49 59.50270 -132.32642 39110 ft 538 kts 95°
2026-05-06 16:49 59.49834 -132.17939 39111 ft 538 kts 95°
2026-05-06 16:50 59.49382 -132.03245 39102 ft 538 kts 95°
2026-05-06 16:50 59.48913 -131.88555 39100 ft 538 kts 95°
2026-05-06 16:51 59.48427 -131.73868 39100 ft 538 kts 96°
2026-05-06 16:51 59.47925 -131.59183 39105 ft 538 kts 96°
2026-05-06 16:52 59.47406 -131.44487 39106 ft 539 kts 96°
2026-05-06 16:52 59.46870 -131.29792 39099 ft 539 kts 96°
2026-05-06 16:53 59.46317 -131.15099 39093 ft 538 kts 96°
2026-05-06 16:53 59.45749 -131.00426 39095 ft 538 kts 96°
2026-05-06 16:54 59.45164 -130.85759 39083 ft 538 kts 96°
2026-05-06 16:54 59.44566 -130.71142 39077 ft 535 kts 97°
2026-05-06 16:55 59.43953 -130.56585 39071 ft 534 kts 97°
2026-05-06 16:55 59.43426 -130.44395 39070 ft 534 kts 97°
2026-05-06 16:56 59.42783 -130.29869 39067 ft 534 kts 97°
2026-05-06 16:56 59.42125 -130.15345 39062 ft 534 kts 97°
2026-05-06 16:57 59.41450 -130.00820 39057 ft 534 kts 97°
2026-05-06 16:57 59.40763 -129.86277 39053 ft 536 kts 97°
2026-05-06 16:58 59.40049 -129.71665 39045 ft 539 kts 97°
2026-05-06 16:58 59.39322 -129.57121 39046 ft 539 kts 97°
2026-05-06 16:59 59.38575 -129.42479 39026 ft 539 kts 97°
2026-05-06 16:59 59.37813 -129.27847 39031 ft 539 kts 98°
2026-05-06 17:00 59.37028 -129.13117 39030 ft 539 kts 98°
2026-05-06 17:00 59.36238 -128.98611 39022 ft 538 kts 98°
2026-05-06 17:01 59.35423 -128.83943 39015 ft 537 kts 98°
2026-05-06 17:01 59.34605 -128.69514 39009 ft 536 kts 98°
2026-05-06 17:02 59.33759 -128.54902 39007 ft 536 kts 98°
2026-05-06 17:02 59.32903 -128.40386 39020 ft 536 kts 98°
2026-05-06 17:03 59.32031 -128.25885 38997 ft 536 kts 98°
2026-05-06 17:03 59.31144 -128.11395 38990 ft 535 kts 99°
2026-05-06 17:04 59.30249 -127.97065 38991 ft 533 kts 99°
2026-05-06 17:04 59.29329 -127.82587 38990 ft 533 kts 99°
2026-05-06 17:05 59.28405 -127.68308 38990 ft 532 kts 99°
2026-05-06 17:05 59.27460 -127.53949 38985 ft 532 kts 99°
2026-05-06 17:06 59.26499 -127.39601 38982 ft 532 kts 99°
2026-05-06 17:06 59.25523 -127.25258 38982 ft 532 kts 99°
2026-05-06 17:07 59.24528 -127.10894 38973 ft 534 kts 100°
2026-05-06 17:07 59.23515 -126.96499 38972 ft 535 kts 100°
2026-05-06 17:08 59.22485 -126.82103 38967 ft 535 kts 100°
2026-05-06 17:08 59.21440 -126.67715 38965 ft 535 kts 100°
2026-05-06 17:09 59.20379 -126.53336 38968 ft 535 kts 100°
2026-05-06 17:09 59.19302 -126.38972 38943 ft 535 kts 100°
2026-05-06 17:10 59.18206 -126.24588 38954 ft 537 kts 100°
2026-05-06 17:10 59.17094 -126.10188 38945 ft 538 kts 100°
2026-05-06 17:11 59.15964 -125.95785 38937 ft 537 kts 101°
2026-05-06 17:11 59.14819 -125.81395 38939 ft 538 kts 101°
2026-05-06 17:12 59.13656 -125.67000 38919 ft 538 kts 101°
2026-05-06 17:12 59.12479 -125.52628 38918 ft 537 kts 101°
2026-05-06 17:13 59.11284 -125.38264 38903 ft 538 kts 101°
2026-05-06 17:13 59.10074 -125.23901 38893 ft 538 kts 101°
2026-05-06 17:14 59.08847 -125.09531 38893 ft 539 kts 101°
2026-05-06 17:14 59.07605 -124.95173 38871 ft 538 kts 101°
2026-05-06 17:15 59.06347 -124.80818 38869 ft 539 kts 101°
2026-05-06 17:15 59.05072 -124.66486 38862 ft 538 kts 101°
2026-05-06 17:16 59.03786 -124.52196 38850 ft 536 kts 101°
2026-05-06 17:16 59.02488 -124.37985 38854 ft 534 kts 102°
2026-05-06 17:17 59.01182 -124.23794 38849 ft 533 kts 101°
2026-05-06 17:17 58.99858 -124.09649 38847 ft 534 kts 102°
2026-05-06 17:18 58.98513 -123.95491 38842 ft 533 kts 102°
2026-05-06 17:18 58.97152 -123.81363 38839 ft 534 kts 102°
2026-05-06 17:19 58.95785 -123.67247 38833 ft 531 kts 102°
2026-05-06 17:19 58.94410 -123.53212 38831 ft 530 kts 102°
2026-05-06 17:20 58.93017 -123.39201 38833 ft 529 kts 102°
2026-05-06 17:20 58.91610 -123.25216 38831 ft 529 kts 102°
2026-05-06 17:21 58.90038 -123.11313 38832 ft 528 kts 109°
2026-05-06 17:21 58.86812 -122.98757 38831 ft 520 kts 129°
2026-05-06 17:22 58.81853 -122.88773 38829 ft 514 kts 141°
2026-05-06 17:22 58.76487 -122.79673 38825 ft 514 kts 142°
2026-05-06 17:23 58.71067 -122.70686 38825 ft 514 kts 142°
2026-05-06 17:23 58.65670 -122.61676 38827 ft 514 kts 142°
2026-05-06 17:24 58.60280 -122.52643 38829 ft 515 kts 142°
2026-05-06 17:24 58.54888 -122.43626 38840 ft 515 kts 142°
2026-05-06 17:25 58.49488 -122.34635 38843 ft 515 kts 142°
2026-05-06 17:25 58.44077 -122.25668 38842 ft 515 kts 142°
2026-05-06 17:26 58.38662 -122.16734 38848 ft 515 kts 142°
2026-05-06 17:26 58.33233 -122.07816 38848 ft 515 kts 142°
2026-05-06 17:27 58.27797 -121.98922 38846 ft 515 kts 142°
2026-05-06 17:27 58.22355 -121.90056 38848 ft 515 kts 142°
2026-05-06 17:28 58.16908 -121.81219 38842 ft 515 kts 142°
2026-05-06 17:28 58.11457 -121.72412 38844 ft 515 kts 142°
2026-05-06 17:29 58.05999 -121.63631 38845 ft 515 kts 143°
2026-05-06 17:29 58.00537 -121.54881 38844 ft 515 kts 143°
2026-05-06 17:30 57.95069 -121.46164 38837 ft 515 kts 143°
2026-05-06 17:30 57.89594 -121.37463 38848 ft 515 kts 143°
2026-05-06 17:31 57.84109 -121.28781 38850 ft 515 kts 143°
2026-05-06 17:31 57.78626 -121.20138 38847 ft 515 kts 143°
2026-05-06 17:32 57.73136 -121.11522 38847 ft 515 kts 143°
2026-05-06 17:32 57.67639 -121.02929 38842 ft 515 kts 143°
2026-05-06 17:33 57.62138 -120.94367 38842 ft 515 kts 143°
2026-05-06 17:33 57.56632 -120.85831 38836 ft 515 kts 143°
2026-05-06 17:34 57.51120 -120.77320 38819 ft 515 kts 143°
2026-05-06 17:34 57.45596 -120.68826 38828 ft 516 kts 143°
2026-05-06 17:35 57.40063 -120.60352 38824 ft 516 kts 144°
2026-05-06 17:35 57.34524 -120.51903 38816 ft 516 kts 144°
2026-05-06 17:36 57.27145 -120.40701 38804 ft 516 kts 144°
2026-05-06 17:36 57.21590 -120.32307 38804 ft 516 kts 144°
2026-05-06 17:37 57.16029 -120.23938 38799 ft 516 kts 144°
2026-05-06 17:37 57.10461 -120.15592 38798 ft 516 kts 144°
2026-05-06 17:38 57.04888 -120.07271 38788 ft 516 kts 144°
2026-05-06 17:38 56.99618 -119.98276 38797 ft 522 kts 132°
2026-05-06 17:39 56.95352 -119.87450 38795 ft 525 kts 127°
2026-05-06 17:39 56.91318 -119.76311 38799 ft 525 kts 126°
2026-05-06 17:40 56.87298 -119.65154 38785 ft 525 kts 126°
2026-05-06 17:40 56.83243 -119.54049 38796 ft 525 kts 126°
2026-05-06 17:41 56.79163 -119.42989 38796 ft 525 kts 127°
2026-05-06 17:41 56.75073 -119.31963 38795 ft 525 kts 127°
2026-05-06 17:42 56.70972 -119.20956 38800 ft 525 kts 127°
2026-05-06 17:42 56.66888 -119.10045 38798 ft 526 kts 127°
2026-05-06 17:43 56.62753 -118.99047 38802 ft 527 kts 127°
2026-05-06 17:43 56.58607 -118.88063 38802 ft 528 kts 127°
2026-05-06 17:44 56.54450 -118.77102 38807 ft 528 kts 127°
2026-05-06 17:44 56.50283 -118.66164 38800 ft 528 kts 127°
2026-05-06 17:45 56.46104 -118.55244 38809 ft 528 kts 127°
2026-05-06 17:45 56.41917 -118.44352 38809 ft 528 kts 127°
2026-05-06 17:46 56.37719 -118.33482 38816 ft 528 kts 127°
2026-05-06 17:46 56.33514 -118.22640 38810 ft 528 kts 127°
2026-05-06 17:47 56.29297 -118.11818 38820 ft 528 kts 127°
2026-05-06 17:47 56.25071 -118.01019 38828 ft 528 kts 127°
2026-05-06 17:48 56.20835 -117.90246 38817 ft 528 kts 127°
2026-05-06 17:48 56.16575 -117.79461 38803 ft 530 kts 127°
2026-05-06 17:49 56.12297 -117.68672 38798 ft 531 kts 127°
2026-05-06 17:49 56.08008 -117.57901 38798 ft 531 kts 127°
2026-05-06 17:50 56.03708 -117.47153 38801 ft 531 kts 127°
2026-05-06 17:50 55.99399 -117.36430 38807 ft 531 kts 127°
2026-05-06 17:51 55.95082 -117.25734 38812 ft 531 kts 127°
2026-05-06 17:51 55.90800 -117.15172 38824 ft 532 kts 127°
2026-05-06 17:52 55.86457 -117.04504 38823 ft 532 kts 128°
2026-05-06 17:52 55.82109 -116.93872 38826 ft 531 kts 128°
2026-05-06 17:53 55.77750 -116.83259 38827 ft 531 kts 128°
2026-05-06 17:53 55.73377 -116.72666 38832 ft 532 kts 127°
2026-05-06 17:54 55.68992 -116.62063 38829 ft 534 kts 127°
2026-05-06 17:54 55.64588 -116.51472 38834 ft 534 kts 128°
2026-05-06 17:55 55.60169 -116.40907 38834 ft 534 kts 128°
2026-05-06 17:55 55.55740 -116.30360 38849 ft 535 kts 128°
2026-05-06 17:56 55.51296 -116.19817 38853 ft 535 kts 128°
2026-05-06 17:56 55.46843 -116.09296 38853 ft 535 kts 128°
2026-05-06 17:57 55.42383 -115.98804 38853 ft 535 kts 128°
2026-05-06 17:57 55.37910 -115.88327 38853 ft 536 kts 128°
2026-05-06 17:58 55.33453 -115.77931 38857 ft 536 kts 128°
2026-05-06 17:58 55.28956 -115.67485 38853 ft 536 kts 128°
2026-05-06 17:59 55.24442 -115.57052 38857 ft 538 kts 127°
2026-05-06 17:59 55.19910 -115.46613 38850 ft 539 kts 127°
2026-05-06 18:00 55.15361 -115.36181 38861 ft 539 kts 127°
2026-05-06 18:00 55.10802 -115.25767 38864 ft 540 kts 128°
2026-05-06 18:01 55.06233 -115.15379 38871 ft 539 kts 128°
2026-05-06 18:01 55.01659 -115.05024 38866 ft 539 kts 128°
2026-05-06 18:02 54.97072 -114.94681 38891 ft 540 kts 128°
2026-05-06 18:02 54.92474 -114.84357 38894 ft 540 kts 128°
2026-05-06 18:03 54.87868 -114.74056 38908 ft 540 kts 128°
2026-05-06 18:03 54.83252 -114.63781 38910 ft 540 kts 128°
2026-05-06 18:04 54.78615 -114.53501 38931 ft 542 kts 127°
2026-05-06 18:04 54.73956 -114.43213 38927 ft 543 kts 128°
2026-05-06 18:05 54.69283 -114.32934 38926 ft 544 kts 128°
2026-05-06 18:05 54.64599 -114.22676 38925 ft 544 kts 128°
2026-05-06 18:06 54.59902 -114.12434 38935 ft 544 kts 128°
2026-05-06 18:06 54.55194 -114.02208 38935 ft 545 kts 128°
2026-05-06 18:07 54.50477 -113.92006 38935 ft 544 kts 128°
2026-05-06 18:07 54.45753 -113.81833 38936 ft 545 kts 128°
2026-05-06 18:08 54.41012 -113.71663 38944 ft 545 kts 128°
2026-05-06 18:08 54.36260 -113.61512 38949 ft 546 kts 128°
2026-05-06 18:09 54.31495 -113.51377 38965 ft 546 kts 128°
2026-05-06 18:09 54.26710 -113.41241 38948 ft 548 kts 128°
2026-05-06 18:10 54.21903 -113.31093 38965 ft 549 kts 128°
2026-05-06 18:10 54.17084 -113.20963 38962 ft 550 kts 128°
2026-05-06 18:11 54.13073 -113.12566 38967 ft 549 kts 128°
2026-05-06 18:11 54.07418 -113.00774 38961 ft 550 kts 128°
2026-05-06 18:12 54.03044 -112.90148 38982 ft 548 kts 119°
2026-05-06 18:12 53.99207 -112.78977 38982 ft 547 kts 117°
2026-05-06 18:13 53.95448 -112.67730 38979 ft 547 kts 117°
2026-05-06 18:13 53.91704 -112.56586 38999 ft 548 kts 117°
2026-05-06 18:14 53.87874 -112.45293 38992 ft 549 kts 117°
2026-05-06 18:14 53.84078 -112.34179 38995 ft 549 kts 117°
2026-05-06 18:15 53.80242 -112.23005 39003 ft 549 kts 117°
2026-05-06 18:15 53.76397 -112.11850 39003 ft 549 kts 117°
2026-05-06 18:16 53.72542 -112.00720 39003 ft 549 kts 117°
2026-05-06 18:16 53.68677 -111.89604 39009 ft 549 kts 117°
2026-05-06 18:17 53.64796 -111.78498 39020 ft 550 kts 117°
2026-05-06 18:17 53.60906 -111.67415 39011 ft 550 kts 117°
2026-05-06 18:18 53.57003 -111.56340 39024 ft 550 kts 117°
2026-05-06 18:18 53.53089 -111.45287 39020 ft 550 kts 117°
2026-05-06 18:19 53.49163 -111.34248 39026 ft 550 kts 117°
2026-05-06 18:19 53.45230 -111.23238 39033 ft 550 kts 117°
2026-05-06 18:20 53.41283 -111.12237 39034 ft 550 kts 117°
2026-05-06 18:20 53.37327 -111.01262 39066 ft 551 kts 117°
2026-05-06 18:21 53.34031 -110.92156 39046 ft 550 kts 117°
2026-05-06 18:21 53.30062 -110.81232 39050 ft 550 kts 117°
2026-05-06 18:22 53.26084 -110.70328 39052 ft 550 kts 117°
2026-05-06 18:22 53.22094 -110.59442 39043 ft 550 kts 117°
2026-05-06 18:23 53.18092 -110.48569 39033 ft 550 kts 117°
2026-05-06 18:23 53.14082 -110.37724 39031 ft 550 kts 118°
2026-05-06 18:24 53.10058 -110.26887 39031 ft 550 kts 118°
2026-05-06 18:24 53.06024 -110.16068 39035 ft 550 kts 118°
2026-05-06 18:25 53.01981 -110.05273 39046 ft 550 kts 118°
2026-05-06 18:25 52.98574 -109.94011 39056 ft 544 kts 108°
2026-05-06 18:26 52.95704 -109.82423 39075 ft 543 kts 107°
2026-05-06 18:26 52.92910 -109.70790 39069 ft 543 kts 107°
2026-05-06 18:27 52.90102 -109.59179 39066 ft 543 kts 107°
2026-05-06 18:27 52.87267 -109.47598 39073 ft 542 kts 107°
2026-05-06 18:28 52.84421 -109.36056 39075 ft 541 kts 107°
2026-05-06 18:28 52.81565 -109.24541 39083 ft 541 kts 107°
2026-05-06 18:29 52.78697 -109.13031 39084 ft 541 kts 107°
2026-05-06 18:29 52.75819 -109.01541 39088 ft 542 kts 107°
2026-05-06 18:30 52.72928 -108.90059 39122 ft 542 kts 108°
2026-05-06 18:30 52.70033 -108.78624 39098 ft 540 kts 108°
2026-05-06 18:31 52.67131 -108.67217 39096 ft 539 kts 108°
2026-05-06 18:31 52.64221 -108.55832 39092 ft 539 kts 108°
2026-05-06 18:32 52.61298 -108.44457 39096 ft 539 kts 108°
2026-05-06 18:32 52.58365 -108.33100 39105 ft 540 kts 108°
2026-05-06 18:33 52.55421 -108.21763 39108 ft 538 kts 108°
2026-05-06 18:33 52.52478 -108.10489 39094 ft 536 kts 108°
2026-05-06 18:34 52.49530 -107.99245 39097 ft 536 kts 108°
2026-05-06 18:34 52.46573 -107.88019 39097 ft 536 kts 108°
2026-05-06 18:35 52.43605 -107.76811 39096 ft 536 kts 108°
2026-05-06 18:35 52.40625 -107.65609 39097 ft 536 kts 108°
2026-05-06 18:36 52.37634 -107.54424 39100 ft 536 kts 108°
2026-05-06 18:36 52.34633 -107.43253 39102 ft 536 kts 109°
2026-05-06 18:37 52.31620 -107.32094 39102 ft 536 kts 109°
2026-05-06 18:37 52.28597 -107.20953 39105 ft 537 kts 109°
2026-05-06 18:38 52.25561 -107.09818 39108 ft 537 kts 109°
2026-05-06 18:38 52.22538 -106.98778 39121 ft 537 kts 109°
2026-05-06 18:39 52.19453 -106.87569 39101 ft 539 kts 109°
2026-05-06 18:40 52.14823 -106.70853 39046 ft 540 kts 109°
2026-05-06 18:40 52.11395 -106.59941 39043 ft 543 kts 115°
2026-05-06 18:41 52.07675 -106.49239 39063 ft 544 kts 115°
2026-05-06 18:41 52.03925 -106.38556 39078 ft 544 kts 115°
2026-05-06 18:42 52.00158 -106.27875 39115 ft 546 kts 115°
2026-05-06 18:42 51.96368 -106.17181 39109 ft 547 kts 116°
2026-05-06 18:43 51.92568 -106.06501 39116 ft 547 kts 116°
2026-05-06 18:43 51.88757 -105.95839 39110 ft 547 kts 116°
2026-05-06 18:44 51.84936 -105.85192 39111 ft 547 kts 116°
2026-05-06 18:44 51.81102 -105.74552 39115 ft 547 kts 116°
2026-05-06 18:45 51.77262 -105.63944 39111 ft 547 kts 116°
2026-05-06 18:45 51.73417 -105.53363 39112 ft 547 kts 116°
2026-05-06 18:46 51.69562 -105.42799 39115 ft 547 kts 116°
2026-05-06 18:46 51.65695 -105.32247 39115 ft 547 kts 116°
2026-05-06 18:47 51.61817 -105.21709 39115 ft 547 kts 116°
2026-05-06 18:47 51.57906 -105.11126 39117 ft 547 kts 116°
2026-05-06 18:48 51.54041 -105.00711 39120 ft 545 kts 116°
2026-05-06 18:48 51.50149 -104.90264 39118 ft 545 kts 117°
2026-05-06 18:49 51.46253 -104.79848 39119 ft 545 kts 117°
2026-05-06 18:49 51.42344 -104.69442 39127 ft 545 kts 117°
2026-05-06 18:50 51.38428 -104.59059 39125 ft 545 kts 117°
2026-05-06 18:50 51.34500 -104.48685 39124 ft 545 kts 117°
2026-05-06 18:51 51.30572 -104.38356 39132 ft 543 kts 117°
2026-05-06 18:51 51.26644 -104.28066 39123 ft 542 kts 117°
2026-05-06 18:52 51.22683 -104.17731 39120 ft 542 kts 117°
2026-05-06 18:52 51.18767 -104.07555 39118 ft 542 kts 117°
2026-05-06 18:53 51.14788 -103.97255 39115 ft 542 kts 118°
2026-05-06 18:53 51.10854 -103.87113 39116 ft 542 kts 118°
2026-05-06 18:54 51.06858 -103.76852 39112 ft 542 kts 118°
2026-05-06 18:54 51.02879 -103.66673 39115 ft 542 kts 118°
2026-05-06 18:55 50.98916 -103.56576 39109 ft 542 kts 118°
2026-05-06 18:55 50.94920 -103.46434 39110 ft 542 kts 118°
2026-05-06 18:56 50.90912 -103.36303 39106 ft 542 kts 118°
2026-05-06 18:56 50.86896 -103.26190 39145 ft 542 kts 118°
2026-05-06 18:57 50.82871 -103.16094 39100 ft 542 kts 118°
2026-05-06 18:57 50.78839 -103.06019 39101 ft 542 kts 119°
2026-05-06 18:58 50.74798 -102.95963 39098 ft 542 kts 119°
2026-05-06 18:58 50.70750 -102.85925 39110 ft 542 kts 119°
2026-05-06 18:59 50.66691 -102.75902 39095 ft 542 kts 119°
2026-05-06 18:59 50.62626 -102.65899 39126 ft 542 kts 120°
2026-05-06 19:00 50.58557 -102.55927 39107 ft 541 kts 120°
2026-05-06 19:00 50.54482 -102.45978 39105 ft 541 kts 120°
2026-05-06 19:01 50.50400 -102.36049 39103 ft 541 kts 120°
2026-05-06 19:01 50.46308 -102.26135 39102 ft 541 kts 120°
2026-05-06 19:02 50.42875 -102.17844 39097 ft 541 kts 120°
2026-05-06 19:02 50.38768 -102.07960 39125 ft 541 kts 120°
2026-05-06 19:03 50.34657 -101.98107 39100 ft 540 kts 120°
2026-05-06 19:03 50.30539 -101.88272 39102 ft 540 kts 120°
2026-05-06 19:04 50.26442 -101.78524 39100 ft 540 kts 121°
2026-05-06 19:04 50.22312 -101.68731 39099 ft 540 kts 121°
2026-05-06 19:05 50.18172 -101.58954 39098 ft 540 kts 121°
2026-05-06 19:05 50.14025 -101.49192 39114 ft 539 kts 121°
2026-05-06 19:06 50.09882 -101.39459 39103 ft 539 kts 121°
2026-05-06 19:06 50.05721 -101.29762 39100 ft 539 kts 121°
2026-05-06 19:07 50.01558 -101.20075 39096 ft 539 kts 121°
2026-05-06 19:07 49.97386 -101.10403 39097 ft 539 kts 121°
2026-05-06 19:08 49.93207 -101.00751 39096 ft 539 kts 121°
2026-05-06 19:08 49.89020 -100.91112 39101 ft 538 kts 122°
2026-05-06 19:09 49.84829 -100.81501 39099 ft 538 kts 122°
2026-05-06 19:09 49.80633 -100.71913 39099 ft 538 kts 122°
2026-05-06 19:10 49.76428 -100.62339 39096 ft 538 kts 122°
2026-05-06 19:10 49.72217 -100.52786 39100 ft 538 kts 122°
2026-05-06 19:11 49.67998 -100.43248 39093 ft 538 kts 122°
2026-05-06 19:11 49.63774 -100.33734 39093 ft 536 kts 122°
2026-05-06 19:12 49.59551 -100.24256 39092 ft 536 kts 123°
2026-05-06 19:12 49.55322 -100.14800 39093 ft 536 kts 123°
2026-05-06 19:13 49.51084 -100.05355 39085 ft 536 kts 123°
2026-05-06 19:13 49.46842 -99.95934 39092 ft 536 kts 123°
2026-05-06 19:14 49.42592 -99.86530 39103 ft 536 kts 123°
2026-05-06 19:14 49.38335 -99.77150 39091 ft 535 kts 123°
2026-05-06 19:15 49.34076 -99.67788 39089 ft 535 kts 123°
2026-05-06 19:15 49.29807 -99.58438 39096 ft 535 kts 123°
2026-05-06 19:16 49.25531 -99.49108 39097 ft 535 kts 123°
2026-05-06 19:16 49.21246 -99.39792 39099 ft 535 kts 124°
2026-05-06 19:17 49.16955 -99.30494 39107 ft 535 kts 124°
2026-05-06 19:17 49.12658 -99.21214 39096 ft 535 kts 124°
2026-05-06 19:18 49.08355 -99.11957 39101 ft 535 kts 124°
2026-05-06 19:18 49.04046 -99.02717 39101 ft 535 kts 124°
2026-05-06 19:19 48.99727 -98.93486 39101 ft 535 kts 124°
2026-05-06 19:19 48.95403 -98.84277 39098 ft 535 kts 124°
2026-05-06 19:20 48.91071 -98.75084 39103 ft 535 kts 124°
2026-05-06 19:20 48.86733 -98.65906 39097 ft 535 kts 125°
2026-05-06 19:21 48.82386 -98.56744 39096 ft 535 kts 125°
2026-05-06 19:21 48.78034 -98.47601 39097 ft 535 kts 125°
2026-05-06 19:22 48.73673 -98.38470 39094 ft 535 kts 125°
2026-05-06 19:22 48.69303 -98.29352 39095 ft 535 kts 125°
2026-05-06 19:23 48.64924 -98.20245 39095 ft 535 kts 125°
2026-05-06 19:23 48.60539 -98.11157 39091 ft 535 kts 125°
2026-05-06 19:24 48.56143 -98.02078 39090 ft 535 kts 125°
2026-05-06 19:24 48.51743 -97.93018 39082 ft 535 kts 126°
2026-05-06 19:25 48.47337 -97.83978 39085 ft 535 kts 126°
2026-05-06 19:25 48.42921 -97.74948 39083 ft 535 kts 126°
2026-05-06 19:26 48.38496 -97.65930 39074 ft 535 kts 126°
2026-05-06 19:26 48.34066 -97.56930 39076 ft 535 kts 126°
2026-05-06 19:27 48.29626 -97.47941 39057 ft 535 kts 126°
2026-05-06 19:27 48.25182 -97.38973 39061 ft 535 kts 126°
2026-05-06 19:28 48.20729 -97.30017 39067 ft 535 kts 126°
2026-05-06 19:28 48.16269 -97.21076 39067 ft 536 kts 126°
2026-05-06 19:29 48.11829 -97.12205 39062 ft 536 kts 127°
2026-05-06 19:29 48.07357 -97.03298 39061 ft 536 kts 127°
2026-05-06 19:30 48.02876 -96.94403 39062 ft 536 kts 127°
2026-05-06 19:30 47.98385 -96.85518 39053 ft 536 kts 127°
2026-05-06 19:31 47.93885 -96.76642 39042 ft 536 kts 127°
2026-05-06 19:31 47.87128 -96.63374 39027 ft 536 kts 127°
2026-05-06 19:32 47.82614 -96.54543 39083 ft 536 kts 127°
2026-05-06 19:32 47.78094 -96.45728 39092 ft 536 kts 127°
2026-05-06 19:33 47.73564 -96.36923 39091 ft 536 kts 127°
2026-05-06 19:33 47.69028 -96.28135 39094 ft 536 kts 128°
2026-05-06 19:34 47.64493 -96.19368 39083 ft 536 kts 128°
2026-05-06 19:34 47.59944 -96.10617 39075 ft 536 kts 128°
2026-05-06 19:35 47.55390 -96.01883 39066 ft 536 kts 128°
2026-05-06 19:35 47.50862 -95.93222 39061 ft 536 kts 128°
2026-05-06 19:36 47.46263 -95.84455 39062 ft 536 kts 128°
2026-05-06 19:36 47.41692 -95.75766 39065 ft 536 kts 128°
2026-05-06 19:37 47.37111 -95.67088 39074 ft 536 kts 128°
2026-05-06 19:37 47.33299 -95.59888 39089 ft 536 kts 128°
2026-05-06 19:38 47.27929 -95.49775 39092 ft 536 kts 129°
2026-05-06 19:38 47.23358 -95.41198 39085 ft 536 kts 129°
2026-05-06 19:39 47.18714 -95.32515 39088 ft 536 kts 129°
2026-05-06 19:39 47.14130 -95.23962 39081 ft 536 kts 129°
2026-05-06 19:40 47.09506 -95.15366 39054 ft 536 kts 129°
2026-05-06 19:40 47.04876 -95.06785 39039 ft 537 kts 129°
2026-05-06 19:41 47.00234 -94.98207 39040 ft 537 kts 129°
2026-05-06 19:41 46.95586 -94.89644 39050 ft 537 kts 129°
2026-05-06 19:42 46.90938 -94.81100 39052 ft 537 kts 130°
2026-05-06 19:42 46.86280 -94.72578 39050 ft 537 kts 130°
2026-05-06 19:43 46.81607 -94.64057 39051 ft 537 kts 130°
2026-05-06 19:43 46.76928 -94.55548 39034 ft 538 kts 130°
2026-05-06 19:44 46.72242 -94.47050 39027 ft 538 kts 130°
2026-05-06 19:44 46.67554 -94.38574 39027 ft 537 kts 130°
2026-05-06 19:45 46.63649 -94.31533 39027 ft 536 kts 130°
2026-05-06 19:45 46.61302 -94.27310 38877 ft 524 kts 130°
2026-05-06 19:45 46.58335 -94.21975 38336 ft 500 kts 130°
2026-05-06 19:46 46.56873 -94.19351 38025 ft 489 kts 130°
2026-05-06 19:46 46.54730 -94.15718 37570 ft 471 kts 137°
2026-05-06 19:46 46.52304 -94.12861 37060 ft 453 kts 152°
2026-05-06 19:46 46.49511 -94.10880 36265 ft 446 kts 160°
2026-05-06 19:47 46.46589 -94.09216 35333 ft 456 kts 162°
2026-05-06 19:47 46.43593 -94.07565 34446 ft 465 kts 161°
2026-05-06 19:47 46.40539 -94.05877 33404 ft 475 kts 161°
2026-05-06 19:47 46.37425 -94.04147 32309 ft 484 kts 161°
2026-05-06 19:48 46.34285 -94.02397 31741 ft 481 kts 161°
2026-05-06 19:48 46.31180 -94.00664 31290 ft 476 kts 161°
2026-05-06 19:48 46.28105 -93.98948 30832 ft 471 kts 161°
2026-05-06 19:48 46.25059 -93.97252 30380 ft 467 kts 161°
2026-05-06 19:49 46.22042 -93.95573 29883 ft 462 kts 161°
2026-05-06 19:49 46.19064 -93.93917 29429 ft 456 kts 160°
2026-05-06 19:49 46.16119 -93.92282 28976 ft 450 kts 160°
2026-05-06 19:49 46.13214 -93.90670 28545 ft 444 kts 160°
2026-05-06 19:50 46.10346 -93.89082 28110 ft 439 kts 160°
2026-05-06 19:50 46.07517 -93.87515 27679 ft 433 kts 161°
2026-05-06 19:50 46.04714 -93.85970 27249 ft 429 kts 161°
2026-05-06 19:50 46.01939 -93.84448 26821 ft 425 kts 161°
2026-05-06 19:51 45.99188 -93.82940 26386 ft 421 kts 161°
2026-05-06 19:51 45.96429 -93.81432 25962 ft 430 kts 161°
2026-05-06 19:51 45.93612 -93.79893 25520 ft 435 kts 161°
2026-05-06 19:51 45.90787 -93.78350 25052 ft 434 kts 161°
2026-05-06 19:52 45.87975 -93.76814 24614 ft 431 kts 161°
2026-05-06 19:52 45.85180 -93.75290 24162 ft 428 kts 161°
2026-05-06 19:52 45.82403 -93.73778 23708 ft 426 kts 161°
2026-05-06 19:52 45.79644 -93.72276 23209 ft 423 kts 161°
2026-05-06 19:53 45.76905 -93.70788 22813 ft 419 kts 161°
2026-05-06 19:53 45.74185 -93.69314 22388 ft 417 kts 161°
2026-05-06 19:53 45.71479 -93.67864 21909 ft 414 kts 161°
2026-05-06 19:53 45.68796 -93.66428 21454 ft 411 kts 161°
2026-05-06 19:54 45.66125 -93.65000 21016 ft 408 kts 161°
2026-05-06 19:54 45.63475 -93.63584 20576 ft 405 kts 161°
2026-05-06 19:54 45.60845 -93.62180 20142 ft 402 kts 161°
2026-05-06 19:54 45.58234 -93.60788 19709 ft 399 kts 161°
2026-05-06 19:55 45.55644 -93.59400 19269 ft 396 kts 161°
2026-05-06 19:55 45.53077 -93.58000 18844 ft 393 kts 161°
2026-05-06 19:55 45.50527 -93.56610 18419 ft 391 kts 161°
2026-05-06 19:55 45.47996 -93.55233 17956 ft 388 kts 161°
2026-05-06 19:56 45.45481 -93.53868 17499 ft 385 kts 161°
2026-05-06 19:56 45.42991 -93.52519 17028 ft 381 kts 161°
2026-05-06 19:56 45.40535 -93.51190 16614 ft 375 kts 161°
2026-05-06 19:56 45.38110 -93.49880 16211 ft 370 kts 161°
2026-05-06 19:57 45.35716 -93.48588 15821 ft 366 kts 161°
2026-05-06 19:57 45.33345 -93.47313 15414 ft 363 kts 161°
2026-05-06 19:57 45.30992 -93.46057 15031 ft 359 kts 162°
2026-05-06 19:57 45.28664 -93.44815 14624 ft 356 kts 162°
2026-05-06 19:58 45.26358 -93.43587 14232 ft 353 kts 162°
2026-05-06 19:58 45.24078 -93.42373 13828 ft 344 kts 162°
2026-05-06 19:58 45.21911 -93.41215 13595 ft 320 kts 162°
2026-05-06 19:58 45.19861 -93.40122 13443 ft 310 kts 162°
2026-05-06 19:59 45.17872 -93.39066 13309 ft 301 kts 162°
2026-05-06 19:59 45.15906 -93.38025 13112 ft 308 kts 162°
2026-05-06 19:59 45.13869 -93.36950 12975 ft 315 kts 162°
2026-05-06 19:59 45.11840 -93.35737 12685 ft 316 kts 158°
2026-05-06 20:00 45.09839 -93.34444 12177 ft 316 kts 158°
2026-05-06 20:00 45.07847 -93.33161 11796 ft 312 kts 158°
2026-05-06 20:00 45.05873 -93.31939 11467 ft 307 kts 161°
2026-05-06 20:00 45.03835 -93.31208 11164 ft 300 kts 174°
2026-05-06 20:01 45.01784 -93.30793 10867 ft 296 kts 176°
2026-05-06 20:01 44.99752 -93.30423 10602 ft 293 kts 176°
2026-05-06 20:01 44.97740 -93.30058 10294 ft 290 kts 176°
2026-05-06 20:01 44.95740 -93.29694 10000 ft 288 kts 176°
2026-05-06 20:02 44.93761 -93.29323 9687 ft 291 kts 176°
2026-05-06 20:02 44.91733 -93.28946 9387 ft 295 kts 175°
2026-05-06 20:02 44.89731 -93.28569 9224 ft 284 kts 176°
2026-05-06 20:02 44.87813 -93.28208 9076 ft 273 kts 176°
2026-05-06 20:03 44.85946 -93.27863 8927 ft 261 kts 176°
2026-05-06 20:03 44.84183 -93.27535 8777 ft 250 kts 176°
2026-05-06 20:03 44.82479 -93.27220 8576 ft 246 kts 176°
2026-05-06 20:03 44.80788 -93.26908 8349 ft 245 kts 176°
2026-05-06 20:04 44.79120 -93.26466 8095 ft 246 kts 165°
2026-05-06 20:04 44.77684 -93.25164 8007 ft 249 kts 132°
2026-05-06 20:04 44.76677 -93.23177 8000 ft 250 kts 122°
2026-05-06 20:04 44.75791 -93.21107 7999 ft 251 kts 121°
2026-05-06 20:05 44.74900 -93.19001 8004 ft 251 kts 121°
2026-05-06 20:05 44.74024 -93.16878 7997 ft 251 kts 120°
2026-05-06 20:05 44.73135 -93.14724 7910 ft 252 kts 121°
2026-05-06 20:05 44.72251 -93.12597 7630 ft 251 kts 121°
2026-05-06 20:06 44.71367 -93.10484 7364 ft 250 kts 121°
2026-05-06 20:06 44.70591 -93.08363 7176 ft 246 kts 110°
2026-05-06 20:06 44.70337 -93.05954 6736 ft 248 kts 82°
2026-05-06 20:06 44.70966 -93.03782 6416 ft 236 kts 44°
2026-05-06 20:07 44.72232 -93.02492 6277 ft 217 kts 17°
2026-05-06 20:07 44.73604 -93.01956 6127 ft 194 kts
2026-05-06 20:07 44.74872 -93.01559 5906 ft 182 kts
2026-05-06 20:07 44.76078 -93.01090 5624 ft 177 kts
2026-05-06 20:08 44.77239 -93.00818 5489 ft 162 kts 357°
2026-05-06 20:08 44.78312 -93.00959 5263 ft 151 kts 338°
2026-05-06 20:08 44.79178 -93.01664 5009 ft 141 kts 315°
2026-05-06 20:08 44.79775 -93.02708 4782 ft 135 kts 300°
2026-05-06 20:09 44.80269 -93.03820 4465 ft 135 kts 302°
2026-05-06 20:09 44.80800 -93.04960 4051 ft 144 kts 302°
2026-05-06 20:09 44.81367 -93.06164 3621 ft 151 kts 302°
2026-05-06 20:09 44.81921 -93.07449 3259 ft 154 kts 296°
2026-05-06 20:10 44.82350 -93.08786 3007 ft 145 kts 296°
2026-05-06 20:10 44.82831 -93.09976 2733 ft 135 kts 301°
2026-05-06 20:10 44.83367 -93.11033 2441 ft 132 kts 305°
2026-05-06 20:10 44.83865 -93.12088 2164 ft 125 kts 294°
2026-05-06 20:11 44.84267 -93.13148 2059 ft 122 kts 300°
2026-05-06 20:11 44.84732 -93.14158 1920 ft 123 kts 304°
2026-05-06 20:11 44.85211 -93.15168 1725 ft 125 kts 295°
2026-05-06 20:11 44.85648 -93.16233 1479 ft 126 kts 300°
2026-05-06 20:12 44.86131 -93.17274 1366 ft 131 kts 296°
2026-05-06 20:12 44.86599 -93.18382 1167 ft 128 kts 298°
2026-05-06 20:12 44.87041 -93.19408 964 ft 118 kts 300°
2026-05-06 20:12 44.87464 -93.20389 847 ft 119 kts 303°
2026-05-06 20:13 44.87860 -93.21297 826 ft 91 kts 302°
2026-05-06 20:13 44.88071 -93.21779 827 ft 43 kts 301°
2026-05-06 20:13 44.88179 -93.21990 825 ft 16 kts 329°
2026-05-06 20:13 44.88253 -93.21986 829 ft 7 kts 27°
2026-05-06 20:14 44.88258 -93.21982 829 ft 0 kts 31°
2026-05-06 20:14 44.88260 -93.21980 825 ft 4 kts 31°
2026-05-06 20:14 44.88322 -93.21923 823 ft 14 kts 39°
2026-05-06 20:14 44.88401 -93.21817 826 ft 17 kts 45°
2026-05-06 20:15 44.88488 -93.21691 827 ft 16 kts 46°
2026-05-06 20:15 44.88534 -93.21612 826 ft 2 kts 90°
2026-05-06 20:15 44.88519 -93.21606 825 ft 6 kts 188°
2026-05-06 20:15 44.88465 -93.21689 825 ft 13 kts 233°
2026-05-06 20:16 44.88400 -93.21805 829 ft 16 kts 224°
2026-05-06 20:16 44.88298 -93.21800 825 ft 17 kts 134°
2026-05-06 20:16 44.88227 -93.21652 824 ft 19 kts 122°
2026-05-06 20:16 44.88167 -93.21507 823 ft 9 kts 104°
2026-05-06 20:17 44.88167 -93.21431 829 ft 8 kts 87°
2026-05-06 20:17 44.88168 -93.21383 831 ft 3 kts 88°
2026-05-06 20:17 44.88169 -93.21374 831 ft 0 kts 86°
2026-05-06 20:18 44.88169 -93.21371 831 ft 0 kts 87°